FW7079 Weather Reports


Display with metric or nautical units.
time (UTC)temp
F
wind
direction
speed
MPH
gust
MPH
rain 1hr
in
rain 24hr
in
rain mn
in
humidity
%
barometer
mb
20260506214553 64 0.0 0.0 0.00 0.00 0.00 53 1016.0
20260506213056 64 284 1.0 4.0 0.00 0.00 0.00 54 1016.1
20260506211555 64 76 1.0 6.0 0.00 0.00 0.00 53 1016.2
20260506210100 64 136 1.0 2.0 0.00 0.00 0.00 54 1016.3
20260506204554 63 44 0.0 2.0 0.00 0.00 0.00 59 1016.5
20260506203104 63 76 1.0 3.0 0.00 0.00 0.00 57 1016.7
20260506201620 63 269 1.0 6.0 0.00 0.00 0.00 58 1016.8
20260506200054 63 30 1.0 3.0 0.00 0.00 0.00 58 1016.7
20260506194557 63 259 1.0 3.0 0.00 0.00 0.00 58 1017.0
20260506193056 62 315 1.0 5.0 0.00 0.00 0.00 59 1017.1
20260506191559 61 239 1.0 5.0 0.00 0.00 0.00 60 1017.2
20260506190056 61 105 1.0 4.0 0.00 0.00 0.00 59 1017.3
20260506184558 61 345 2.0 7.0 0.00 0.00 0.00 59 1017.4
20260506183055 61 40 1.0 6.0 0.00 0.00 0.00 60 1017.6
20260506181553 62 47 2.0 7.0 0.00 0.00 0.00 59 1017.7
20260506180057 61 0 2.0 8.0 0.00 0.00 0.00 61 1017.8
20260506174552 61 50 1.0 5.0 0.00 0.00 0.00 64 1018.0
20260506173112 62 76 1.0 4.0 0.00 0.00 0.00 59 1018.0
20260506171558 62 315 1.0 9.0 0.00 0.00 0.00 62 1018.0
20260506170055 62 284 3.0 11.0 0.00 0.00 0.00 57 1018.1
20260506164555 60 56 2.0 9.0 0.00 0.00 0.00 61 1018.2
20260506163104 60 78 3.0 8.0 0.00 0.00 0.00 60 1018.4
20260506161559 59 44 2.0 9.0 0.00 0.00 0.00 64 1018.3
20260506160052 58 195 1.0 6.0 0.00 0.00 0.00 64 1018.1
20260506154601 56 11 2.0 9.0 0.00 0.00 0.00 66 1018.2
20260506153054 56 209 1.0 6.0 0.00 0.00 0.00 66 1018.1
20260506151551 54 22 1.0 5.0 0.00 0.00 0.00 71 1018.1
20260506144602 52 352 3.0 8.0 0.00 0.00 0.00 74 1017.7
20260506143051 51 176 1.0 4.0 0.00 0.00 0.00 78 1017.5
20260506141558 50 15 1.0 9.0 0.00 0.00 0.00 78 1017.5
20260506134600 49 0 1.0 4.0 0.00 0.00 0.00 80 1017.7
20260506133110 49 29 0.0 7.0 0.00 0.00 0.00 81 1017.8
20260506131558 49 0 0.0 4.0 0.00 0.00 0.00 82 1017.5
20260506130056 48 286 0.0 4.0 0.00 0.00 0.00 83 1017.5
20260506124550 48 295 0.0 3.0 0.00 0.00 0.00 84 1017.3
20260506123053 48 0 0.0 2.0 0.00 0.00 0.00 84 1016.8
20260506121603 48 0 0.0 2.0 0.00 0.00 0.00 84 1016.7
20260506120109 47 124 0.0 2.0 0.00 0.00 0.00 84 1016.5
20260506114603 47 0 0.0 2.0 0.00 0.00 0.00 84 1016.5
20260506113050 47 0 0.0 0.0 0.00 0.00 0.00 83 1016.2
20260506111554 47 0.0 0.0 0.00 0.00 0.00 83 1016.1
20260506110050 48 0.0 0.0 0.00 0.00 0.00 82 1016.0
20260506104548 48 0.0 0.0 0.00 0.00 0.00 82 1016.8
20260506103051 48 0 0.0 1.0 0.00 0.00 0.00 82 1016.6
20260506101553 48 0 0.0 1.0 0.00 0.00 0.00 81 1016.4
20260506100051 48 0 0.0 1.0 0.00 0.00 0.00 81 1016.4
20260506094552 48 0 0.0 1.0 0.00 0.00 0.00 81 1015.8
20260506093112 48 0 0.0 2.0 0.00 0.00 0.00 81 1015.5
20260506091551 48 0 0.0 1.0 0.00 0.00 0.00 81 1015.4
20260506090056 48 176 0.0 1.0 0.00 0.00 0.00 80 1015.1
20260506084554 48 0 0.0 3.0 0.00 0.00 0.00 80 1015.4
20260506083055 48 0 0.0 3.0 0.00 0.00 0.00 81 1014.6
20260506081553 48 278 0.0 2.0 0.00 0.00 0.00 81 1014.4
20260506080111 48 29 0.0 2.0 0.00 0.00 0.00 79 1014.0
20260506073111 48 101 2.0 0.0 0.00 0.00 0.00 78 1013.8
20260506071557 49 11 0.0 3.0 0.00 0.00 0.00 77 1013.7
20260506061601 49 315 0.0 1.0 0.00 0.00 0.00 76 1013.8
20260506044556 49 113 1.0 2.0 0.00 0.00 0.00 75 1013.8
20260506043053 49 0 0.0 3.0 0.00 0.00 0.00 76 1013.6
20260506041605 49 0 0.0 4.0 0.00 0.00 0.00 77 1013.6
20260506040100 49 0 0.0 2.0 0.00 0.00 0.00 79 1013.6
20260506034551 49 0 0.0 3.0 0.00 0.00 0.00 80 1013.5
20260506033052 49 98 1.0 4.0 0.00 0.00 0.00 81 1013.0
20260506031556 49 162 0.0 4.0 0.00 0.00 0.00 81 1012.8
20260506030054 49 196 0.0 3.0 0.00 0.00 0.00 82 1012.9
20260506024555 49 215 0.0 3.0 0.00 0.00 0.00 83 1013.0
20260506023057 49 0 0.0 3.0 0.00 0.00 0.00 84 1013.1
20260506021553 49 0 0.0 2.0 0.00 0.00 0.00 84 1012.9
20260506020117 50 0 0.0 3.0 0.00 0.00 0.00 83 1012.8
20260506014554 50 0 0.0 2.0 0.00 0.00 0.00 82 1012.5
20260506013055 50 11 0.0 2.0 0.00 0.00 0.00 81 1012.5
20260506011552 50 168 0.0 4.0 0.00 0.00 0.00 81 1012.1
20260506010050 50 0 0.0 4.0 0.00 0.00 0.00 80 1011.8
20260506004550 50 303 0.0 3.0 0.00 0.00 0.00 81 1011.1
20260506003049 51 12 0.0 3.0 0.00 0.00 0.00 80 1011.0
20260506001602 51 0 0.0 5.0 0.00 0.00 0.00 80 1010.9
20260506000119 51 324 0.0 4.0 0.00 0.00 0.00 79 1010.8
20260505234552 51 259 1.0 6.0 0.00 0.00 0.00 78 1010.9
20260505233053 52 0 0.0 4.0 0.00 0.00 0.00 77 1011.4
20260505231558 52 0 1.0 2.0 0.00 0.00 0.00 76 1010.8
20260505230052 53 223 0.0 7.0 0.00 0.00 0.00 76 1010.5
20260505224554 53 0 0.0 4.0 0.00 0.00 0.00 76 1010.4
20260505223053 53 202 1.0 3.0 0.00 0.00 0.00 77 1010.4
20260505221557 53 288 1.0 4.0 0.00 0.00 0.00 77 1010.0
20260505220106 54 242 1.0 9.0 0.00 0.00 0.00 76 1010.0